{"data":{"norad_id":53924,"epoch":"2026-09-20T22:22:18.947136Z","epoch_age_seconds":49691,"freshness":"FRESH","line1":"1 53924U 22119AQ  26263.93216374 -.00000443  00000+0 -36907-5 0  9994","line2":"2 53924  53.1588 129.0066 0001379 101.2809 258.8345 15.26512598221701","mean_motion":15.26512598,"eccentricity":0.0001379,"inclination_deg":53.1588,"raan_deg":129.0066,"arg_perigee_deg":101.2809,"mean_anomaly_deg":258.8345,"bstar":-3.6907e-6,"rev_number":22170,"period_min":94.33266400072,"perigee_km":485.30054532855,"apogee_km":487.19374247544,"semimajor_km":6864.384143902,"source":"CELESTRAK","updated_at":"2026-09-21T09:00:33.035964Z"}}